FREGAT DEB (TANK), 43089

Orbit data source: Space-Track

FREGAT DEB (TANK), 43089 is space debris in LEO originally from a launch on Tue, 26 Dec 2017 UTC launched from the Tyuratam Missile And Space Complex (TTMTR). Debris objects in space refer to the collection of defunct objects orbiting the Earth. Examples of debris include non-operational satellites, rocket bodies, and fragments generated from explosions, collisions, or faulty payload assembly.

Loading next visibility...
Identifier
43089, 2017-086C
Orbit
LEO
Country
Flag of CISCIS
Related business
Manufacturer
Lavochkin
Mission
Spacecraft
Bus & Motor
FREGAT SBB, Unknown motor
Mass
360 kg wet, 360 kg dry
Launch date (UTC)
2017-12-26 (8 years ago)
Launch vehicle
Unknown
Launch site
Tyuratam Missile And Space Complex (TTMTR)
Object type
Payload
Rocket body
Debris
Shape & HBR
Torus, 1.9 m
Radar Cross Section
6.703 m², Large (>1 m²)

Expand to show TLE details & history
Last TLE update: 19 hours ago

TLE from 19 hours ago
0 FREGAT DEB (TANK)
1 43089U 17086C   25352.58450102  .00035570  62052-5  65053-3 0  9990
2 43089  50.3600 188.3034 1376758  92.7746 283.0998 12.84206438337245
Epoch: 2025-12-18T14:01Z
TLE epoch observation values (Epoch: 2025-12-18T14:01:40.888Z)
Latitude
Longitude
-109.55487°
Altitude
1,228.216 km
Speed
7.287 km/s
True Right ascension
12h 33m 12s
True Declination
0° 00' 00"
Sunlit
Object was in daylight at epoch
Visualization orbit readout
Latitude
Unknown
Longitude
Unknown
Altitude
Unknown
Speed
Unknown
Apparent Right ascension
Unknown
Apparent Declination
Unknown
Sunlit
N/A
Visualization observer readout
Local Sidereal Time
08:22:07
Azimuth
Unknown
Elevation
Unknown
Doppler factor
Unknown
Orbital elements
Apogee altitude
2,385.83 km
Perigee altitude
264.687 km
Semi-major axis
7,703.396 km
Eccentricity
0.13768
Inclination
50.36°
RAAN
188.3034°
Arg. of periapsis
92.7746°
True anomaly
267.31425°
Mean anomaly
283.0998°
Eccentric anomaly
275.24458°
Mean motion
3.21011 °/min
Orbital period
112.15 mins
BSTAR
0.00065053
Loading maneuver chart data...
Computing Atmospheric mass density...
Loading historical data...
Loading historical data...
Loading historical data...
Loading historical data...
Loading historical data...
Loading historical data...
Loading historical data...

Documentation

Showing up to 5 results
|